Погода Апатитовая

Поиск расширенной информации на нашем сайте:

Полезная информация:

Новости сайта



02.01.2020
Опубликован Долгосрочный прогноз погоды по городам России и ближнего зарубежья на январь 2020 года.
Карты: Прогноз на январь и февраль 2020 года, Сравнение прогнозируемой аномалии приземной температуры воздуха на январь 2020 года по разным моделям.




Погода Апатитовая - сегодня

Время (UTC), дата Ветер
(°,м/с) 
Видим.   Явления Облачность Т
(°С)
Тd
(°С)
f(%) Тe
(°С)
Pmin
(гПа)
dP
(гПа)
Po
(мм)
O2
(г/м3)
Тmin Tmax R s Состояние
почвы
12 29.11.20 190 (Ю) 2-3  20000 м    10/10 300 м 
[St]
-3.3 -3.4 99 -4  1028.8  -0.7  759  310           
15 29.11.20 180 (Ю) 3-4  4000 м  слаб. переохл. морось (гололёд)  10/10 300 м 
[St]
-3.3 -3.3 100 -5  1028.2  -0.6  758  310      0.0     
18 29.11.20 150 (ЮВ) 2-2  4000 м  в посл. час переохл. осадки (гололёд){морось} [диам. сложн. отлож. 4 мм]  10/10 300 м 
[St]
-3.2 -3.2 100 -4  1027.2  -0.9  758  309    -3.2  0.1     
21 29.11.20 170 (Ю) 2-3  20000 м    10/10 300 м 
[St]
-3 -3 100 -4  1026.4  -0.8  757  309           
00 30.11.20 180 (Ю) 4-6  20000 м  {снег}  10/10 600 м 
[Sc]
-2.6 -2.6 100 -5  1025.1  -1.3  756  308           
03 30.11.20 150 (ЮВ) 2-3  20000 м  [диам. сложн. отлож. 4 мм]  10/10 600 м 
[Sc]
-2.1 -2.4 98 -3  1023.8  -1.2  755  307  -3.3    0.1     
06 30.11.20 170 (Ю) 4-6  10 км  слаб. ливневой дождь  10/10 300 м кучево-дожд. 
[Cb cap]
-2.4 -2.5 99 -5  1022.9  -0.9  754  307  -3.2    0.1  18  равномерный
мокрый или
старый снег
100% 
09 30.11.20 170 (Ю) 3-5  10 км  слаб. крупа{ливн. осадки}  10/10 300 м кучево-дожд. 
[Cb cap]
-3 -3.4 97 -5  1022.4  -0.5  754  308           
12 30.11.20 160 (Ю) 3-4  20000 м  слаб. крупа{ливн. осадки}  10/10 300 м кучево-дожд. 
[Cb cap]
-3.2 -3.6 97 -5  1021  -1.4  753  307           
15 30.11.20 110 (В) 3-4  20000 м  {ливн. осадки}  10/10 300 м 
[St]
-3.6 -3.7 99 -6  1019.2  -1.8  752  307      0.2     
18 30.11.20 110 (В) 3-4  4000 м  слаб. ливневой снег [диам. сложн. отлож. 2 мм]  10/10 300 м кучево-дожд. 
[Cb cap]
-3.5 -3.5 100 -6  1017.2  -2  750  307    -2.4  0.1     
21 30.11.20 090 (В) 3-4  4000 м  слаб. ливневой снег  10/10 200 м кучево-дожд. 
[Cb cap]
-2.8 -2.8 100 -5  1015.8  -1.3  749  305           
00 01.12.20 140 (ЮВ) 4-5  4000 м  слаб. ливневой снег  10/10 300 м кучево-дожд. 
[Cb cap]
-2.1 -2.1 100 -5  1013.7  -2  748  304           
03 01.12.20 160 (Ю) 6-9{10}  4000 м  слаб. крупа{ливн. осадки} [диам. сложн. отлож. 1 мм]  10/4 300 м кучево-дожд., средняя 
[Cb cap|Ac As]
-1.1 -1.1 100 -5  1011.7  -1.9  746  302  -3.7    0.0     
06 01.12.20 200 (Ю) 4-5  20000 м    10/8 300 м кучево-дожд., средняя 
[Cb cap|Ac As]
-0.8 -0.8 100 -3  1010.6  -1.1  745  301  -3.5    0.0  17  равномерный
сухой снег
100% 
09 01.12.20 190 (Ю) 4-6  10 км  слаб. ливневой снег  10/10 300 м кучево-дожд. 
[Cb cap]
-0.8 -0.8 100 -3  1010.1  -0.5  745  301           
12 01.12.20 190 (Ю) 3-5  2000 м  слаб. ливневой снег  10/10 200 м кучево-дожд. 
[Cb cap]
-0.8 -0.8 100 -3  1010  -0.1  745  301           
15 01.12.20 190 (Ю) 3-5  2000 м  ливневой снег  10/10 200 м кучево-дожд. 
[Cb cap]
-1.3 -1.3 100 -3  1010.9  0.9  746  302         
21 01.12.20 тихо () -1  4000 м  слаб. ливневой снег  10/10 200 м кучево-дожд. 
[Cb cap]
-1.7 -1.7 100 -2  1014.9  2.4  749  304           
00 02.12.20 тихо ()   20000 м  {ливн. осадки}  9/3 600 м кучево-дожд., средняя 
[Cb cap|Ac trans]
-3.1 -3.1 100 -3  1017.4  2.3  750  306           
03 02.12.20 070 (В) 1-1  2000 м  дымка [диам. изморози 3 мм]  3/3 600 м 
[Sc]
-5.4 -5.4 100 -5  1019.5  752  310  -6.6       
06 02.12.20 100 (В) 1-2  0500 м  переохл. туман  10/0 верхняя 
[Cs]
-6.2 -6.2 100 -6  1020.7  1.1  753  311  -6.9    0.3  19  равномерный
сухой снег
100% 
09 02.12.20 080 (В) 2-3  4000 м  дымка{туман}  10/10 100 м 
[St]
-5.1 -5.1 100 -6  1020.9  0.2  753  310           
12 02.12.20 тихо () -1  20000 м  в посл. час ливневой снег{туман}  9/8 300 м кучево-дожд., средняя 
[Cb cap|Ac trans]
-3.6 -3.6 100 -4  1020.2  -0.5  752  308           
15 02.12.20 160 (Ю) 2-3  20000 м    9/5 600 м средняя 
[Sc|Ac trans]
-5.2 -5.2 100 -7  1019.8  -0.5  752  309      0.0     
Время (UTC), дата Ветер
(°,м/с) 
Видим.   Явления Облачность Т
(°С)
Тd
(°С)
f(%) Тe
(°С)
Pmin
(гПа)
dP
(гПа)
Po
(мм)
O2
(г/м3)
Тmin Tmax R s Состояние
почвы

Для получения пояснительной информации подведите курсор к названию столбца.

ПОГОДА Апатитовая - архив

Всё, что Вы хотите узнать о погоде Апатитовая - удобно и подробно!

Выберите нужную дату (начиная с 1 января 2019* года) и нажмите кнопку "Найти".
Будут отображены архивные сводки погоды по пункту Апатитовая, начиная с указанной даты.


Отображать данные в формате CSV (для использования в таблицах Excel)


Внимание! Наш архив погоды предназначен исключительно для личного некоммерческого использования в познавательных целях. Если Вам необходимы официальные справки о состоянии погоды (для производственных, юридических, коммерческих и т.п. целей), обращайтесь в органы Росгидромета.

*Примечание: данная дата относится к архиву по метеостанциям СССР (Россия, СНГ, Балтия).
Архив по метеостанциям Зарубежной Европы и Азии (кроме Китая) хранится 10 дней, по другим регионам земного шара (Китай, Африка, Америка, Австралия, Океания) - 1 день.

Апатитовая - район местоположения метеостанции


Название, широта, долгота, высота метеостанции:
Апатитовая 67.8°ш. 33.8°д. 135 м над ур. моря [Российская Федерация]

Дополнительная информация

В oтличие oт бoльшинства пoгoдных сайтoв мы публикуем пoдрoбную метеoинфoрмацию в детальнoм прoфессиoнальнoм фoрмате.

Характеристики температуры и влажнoсти вoздуха измеряются на высoте 2 м в тени вдали oт зданий и деревьев.
Скoрoсть ветра измеряется на высoте 10 м (на урoвне рoста челoвека скoрoсть ветра ниже в 1.5-2 раза). Если метеoстанция нахoдится в гoрoде или в лесу, тo скoрoсть ветра занижена на 2-4 м/с пo сравнению с oткрытым местoм. Скoрoсть ветра над акватoриями крупных рек и oзёр, а также на вершинах хoлмoв на 2-5 м/с выше, чем в oбычных услoвиях.
Атмoсфернoе давление в разных тoчках местнoсти мoжет значительнo oтличаться oт давления на метеoстанции, в зависимoсти oт услoвий рельефа (при пoдъёме на 10 м давление пoнижается примернo на 1 мм рт.ст.).